Ord, NE

4:29 PM CST on February 17, 2018 (GMT -0600)
Sharp

Weather History for KODX - April, 2014

Change the Weather History Date:

Thursday, April 24, 2014

  Actual Average Record
Temperature  
Mean Temperature 52 °F 52 °F  
Max Temperature 70 °F 64 °F 90 °F (2012)
Min Temperature 34 °F 39 °F 21 °F (2013)
Degree Days  
Heating Degree Days 13 14  
Month to date heating degree days 411 414  
Since 1 July heating degree days 6277  
Cooling Degree Days 0 0  
Month to date cooling degree days 1 0  
Year to date cooling degree days 1 0  
Growing Degree Days 4 (Base 50)    
Moisture  
Dew Point 31 °F    
Average Humidity 46    
Maximum Humidity 77    
Minimum Humidity 14    
Precipitation  
Precipitation 0.07 in 0.10 in 2.88 in (1929)
Month to date precipitation 0.89 1.95  
Year to date precipitation 1.34 4.21  
Sea Level Pressure  
Sea Level Pressure 29.76 in    
Wind  
Wind Speed 13 mph (NW)    
Max Wind Speed 30 mph    
Max Gust Speed 44 mph    
Visibility 10 miles    
Events Rain    
T = Trace of Precipitation, MM = Missing Value Source: NWS Daily Summary

Daily Weather History Graph

Daily Weather History Graph

Search for Another Location

Airport or City:

Trip Planner

Search our weather history database for the weather conditions in past years. The results will help you decide how hot, cold, wet, or windy it might be!

Date:

Astronomy

Apr. 24, 2014 Rise Set
Actual Time 6:42 AM CDT 8:26 PM CDT
Civil Twilight 6:12 AM CDT 8:55 PM CDT
Nautical Twilight 5:36 AM CDT 9:31 PM CDT
Astronomical Twilight 4:58 AM CDT 10:10 PM CDT
Moon 3:58 AM CDT (4/24) 3:39 PM CDT (4/24)
Length of Visible Light 14h 43m
Length of Day
13h 44m
Waning Crescent, 24% of the Moon is Illuminated
Apr 24
Waning Crescent
Apr 29
New
May 6
First Quarter
May 14
Full
May 21
Last Quarter

Hourly Weather History & Observations

Time (CDT) Temp. Windchill Dew Point Humidity Pressure Visibility Wind Dir Wind Speed Gust Speed Precip Events Conditions
12:53 AM 53.1 °F - 46.9 °F 80% 29.67 in 10.0 mi NNW 16.1 mph - 0.08 in Rain Light Rain
1:53 AM 51.1 °F - 44.1 °F 77% 29.68 in 10.0 mi NNW 12.7 mph - 0.04 in Rain Light Rain
2:53 AM 50.0 °F - 43.0 °F 77% 29.70 in 10.0 mi NNW 15.0 mph - 0.03 in Rain Light Rain
3:53 AM 50.0 °F - 42.1 °F 74% 29.69 in 10.0 mi NNW 12.7 mph - 0.00 in   Overcast
4:53 AM 50.0 °F - 42.1 °F 74% 29.68 in 10.0 mi North 9.2 mph - N/A   Overcast
5:53 AM 50.0 °F - 41.0 °F 71% 29.70 in 10.0 mi NNW 10.4 mph - N/A   Overcast
6:53 AM 48.9 °F - 39.0 °F 69% 29.74 in 10.0 mi NW 10.4 mph - N/A   Overcast
7:53 AM 50.0 °F - 37.0 °F 61% 29.77 in 10.0 mi NW 15.0 mph - N/A   Clear
8:53 AM 52.0 °F - 39.0 °F 61% 29.78 in 10.0 mi NW 13.8 mph - N/A   Clear
9:53 AM 57.0 °F - 37.0 °F 47% 29.78 in 10.0 mi NNW 21.9 mph 29.9 mph N/A   Clear
10:53 AM 61.0 °F - 30.0 °F 31% 29.78 in 10.0 mi NNW 26.5 mph 36.8 mph N/A   Clear
11:53 AM 64.0 °F - 26.1 °F 24% 29.78 in 10.0 mi North 26.5 mph 35.7 mph N/A   Clear
12:53 PM 66.9 °F - 21.9 °F 18% 29.78 in 10.0 mi NNW 25.3 mph 35.7 mph N/A   Clear
1:53 PM 68.0 °F - 21.0 °F 17% 29.78 in 10.0 mi NNW 17.3 mph 31.1 mph N/A   Clear
2:53 PM 69.1 °F - 19.9 °F 15% 29.77 in 10.0 mi NNW 17.3 mph 31.1 mph N/A   Clear
3:53 PM 70.0 °F - 17.1 °F 13% 29.76 in 10.0 mi NW 17.3 mph 27.6 mph N/A   Clear
4:53 PM 70.0 °F - 19.9 °F 15% 29.75 in 10.0 mi NW 18.4 mph 32.2 mph N/A   Clear
5:53 PM 70.0 °F - 18.0 °F 14% 29.74 in 10.0 mi NNW 15.0 mph 26.5 mph N/A   Clear
6:53 PM 69.1 °F - 18.0 °F 14% 29.74 in 10.0 mi NW 11.5 mph - N/A   Clear
7:53 PM 63.0 °F - 21.9 °F 21% 29.77 in 10.0 mi NW 8.1 mph - N/A   Clear
8:53 PM 54.0 °F - 25.0 °F 33% 29.80 in 10.0 mi Calm Calm - N/A   Clear
9:53 PM 44.1 °F - 27.0 °F 51% 29.83 in 10.0 mi Calm Calm - N/A   Clear
10:53 PM 39.9 °F 35.1 °F 28.0 °F 63% 29.84 in 10.0 mi SSW 6.9 mph - N/A   Clear
11:53 PM 39.0 °F 35.7 °F 30.0 °F 70% 29.83 in 10.0 mi SW 4.6 mph - N/A   Clear